Location: Passau
(48.5721°N, 13.4363°E)
Time: 08:07:04
(UTC+01:00)

ISS - Pass Details

Date: 12 January 2018
Orbit: 401 x 406 km, 51.6° (Epoch: 17 January)

Event Time Altitude Azimuth Distance (km) Brightness Sun altitude
Exits shadow 06:24:54 28° 261° (W) 800 -2.9 -14.4°
Maximum altitude 06:26:07 41° 212° (SSW) 606 -3.1 -14.2°
Drops below altitude 10° 06:29:13 10° 141° (SE) 1,460 -0.1 -13.7°
Sets 06:31:21 0° 134° (SE) 2,318 1.3 -13.4°
